Change the Weather History Date:

Monday, October 18, 2010

  Actual Average Record
Temperature  
Mean Temperature 45 °F 45 °F  
Max Temperature 52 °F 52 °F 77 °F (1910)
Min Temperature 37 °F 37 °F 17 °F (1974)
Degree Days  
Heating Degree Days 20 20  
Month to date heating degree days 275 308  
Since 1 July heating degree days 610 709  
Cooling Degree Days 0 0  
Month to date cooling degree days 0 0  
Year to date cooling degree days 307 195  
Moisture  
Dew Point 34 °F    
Average Humidity 69    
Maximum Humidity 92    
Minimum Humidity 46    
Precipitation  
Precipitation T in 0.12 in 2.24 in (1923)
Month to date precipitation 0.15 2.27  
Year to date precipitation 23.01 25.26  
Snow  
Snow 0.00 in 0.10 in 6.80 in (1972)
Month to date snowfall 0.0 0.4  
Since 1 July snowfall 0.0 0.4  
Snow Depth 0.00 in    
Sea Level Pressure  
Sea Level Pressure 29.96 in    
Wind  
Wind Speed 6 mph (WNW)    
Max Wind Speed 20 mph    
Max Gust Speed 26 mph    
Visibility 10 miles    
Events Rain    
T = Trace of Precipitation, MM = Missing Value Source: NWS Daily Summary

Daily Weather History Graph

Daily Weather History Graph

Search for Another Location

Airport or City:

Trip Planner

Search our weather history database for the weather conditions in past years. The results will help you decide how hot, cold, wet, or windy it might be!

Date:

Astronomy

Oct. 18, 2010 Rise Set
Actual Time 7:58 AM EDT 6:45 PM EDT
Civil Twilight 7:28 AM EDT 7:15 PM EDT
Nautical Twilight 6:53 AM EDT 7:50 PM EDT
Astronomical Twilight 6:18 AM EDT 8:25 PM EDT
Moon 4:41 PM EDT (10/18) 3:32 AM EDT (10/18)
Length of Visible Light 11h 47m
Length of Day
10h 46m
Waxing Gibbous, 83% of the Moon is Illuminated
Oct 18
Waxing Gibbous
Oct 22
Full
Oct 30
Last Quarter
Nov 6
New
Nov 13
First Quarter

Hourly Weather History & Observations

Time (EDT) Temp. Windchill Dew Point Humidity Pressure Visibility Wind Dir Wind Speed Gust Speed Precip Events Conditions
12:55 AM 43.0 °F - 37.0 °F 80% 29.99 in 10.0 mi Calm Calm - 0.00 in   Overcast
1:55 AM 44.1 °F 42.5 °F 33.1 °F 65% 29.99 in 10.0 mi NNW 3.5 mph - N/A   Clear
2:55 AM 42.1 °F 40.2 °F 37.0 °F 82% 29.99 in 10.0 mi East 3.5 mph - 0.00 in   Overcast
3:55 AM 39.9 °F - 37.0 °F 89% 30.00 in 10.0 mi Calm Calm - N/A   Mostly Cloudy
4:55 AM 39.9 °F - 36.0 °F 86% 30.00 in 10.0 mi Calm Calm - 0.00 in   Mostly Cloudy
5:55 AM 39.0 °F 36.8 °F 36.0 °F 89% 30.00 in 10.0 mi South 3.5 mph - 0.00 in Rain Light Rain
6:55 AM 37.0 °F 33.3 °F 34.0 °F 89% 30.01 in 10.0 mi South 4.6 mph - 0.00 in   Clear
7:55 AM 39.0 °F 36.8 °F 34.0 °F 82% 30.01 in 10.0 mi South 3.5 mph - N/A   Overcast
8:55 AM 39.9 °F - 36.0 °F 86% 30.02 in 10.0 mi Calm Calm - N/A   Mostly Cloudy
9:55 AM 39.9 °F - 35.1 °F 83% 30.02 in 10.0 mi Calm Calm - N/A   Overcast
10:55 AM 43.0 °F - 37.0 °F 80% 30.01 in 10.0 mi Calm Calm - 0.00 in   Overcast
11:55 AM 48.9 °F - 34.0 °F 56% 29.99 in 10.0 mi Variable 5.8 mph 20.7 mph N/A   Mostly Cloudy
12:55 PM 51.1 °F - 34.0 °F 52% 29.98 in 10.0 mi West 13.8 mph 19.6 mph N/A   Overcast
1:55 PM 50.0 °F - 30.9 °F 48% 29.96 in 10.0 mi WNW 11.5 mph 19.6 mph N/A   Mostly Cloudy
2:55 PM 51.1 °F - 32.0 °F 48% 29.95 in 10.0 mi NW 9.2 mph 18.4 mph N/A   Mostly Cloudy
3:55 PM 51.1 °F - 33.1 °F 50% 29.94 in 10.0 mi NW 15.0 mph 21.9 mph N/A   Scattered Clouds
4:55 PM 48.9 °F - 33.1 °F 54% 29.93 in 10.0 mi NW 17.3 mph 24.2 mph N/A   Partly Cloudy
5:55 PM 46.9 °F - 33.1 °F 59% 29.92 in 10.0 mi NW 13.8 mph 20.7 mph N/A   Clear
6:55 PM 46.0 °F 41.9 °F 32.0 °F 58% 29.92 in 10.0 mi NW 8.1 mph - N/A   Clear
7:55 PM 45.0 °F 42.6 °F 32.0 °F 60% 29.91 in 10.0 mi WNW 4.6 mph - N/A   Clear
8:55 PM 44.1 °F 41.5 °F 32.0 °F 63% 29.91 in 10.0 mi WNW 4.6 mph - N/A   Clear
9:55 PM 43.0 °F 39.5 °F 33.1 °F 68% 29.90 in 10.0 mi West 5.8 mph - N/A   Clear
10:55 PM 44.1 °F 41.5 °F 34.0 °F 68% 29.89 in 10.0 mi WNW 4.6 mph - N/A   Clear
11:55 PM 37.9 °F 34.4 °F 33.1 °F 83% 29.88 in 10.0 mi WSW 4.6 mph - N/A   Clear